Poteau, OK

1:49 PM CDT on May 28, 2017 (GMT -0500)
Kerr

Weather History for KRKR - December, 2013

Change the Weather History Date:

Sunday, December 1, 2013

  Actual Average (KFSM) Record (KFSM)
Temperature  
Mean Temperature 52 °F -  
Max Temperature 62 °F 55 °F 78 °F (1883)
Min Temperature 42 °F 35 °F 18 °F (1975)
Degree Days  
Heating Degree Days 13    
Growing Degree Days 2 (Base 50)    
Moisture  
Dew Point 51 °F    
Average Humidity 92    
Maximum Humidity 100    
Minimum Humidity 72    
Precipitation  
Precipitation 0.00 in - - ()
Sea Level Pressure  
Sea Level Pressure 30.04 in    
Wind  
Wind Speed 2 mph (SW)    
Max Wind Speed 8 mph    
Max Gust Speed -    
Visibility 9 miles    
Events      
Averages and records for this station are not official NWS values.
T = Trace of Precipitation, MM = Missing Value Source: NWS Daily Summary

Daily Weather History Graph

Daily Weather History Graph

Search for Another Location

Airport or City:

Trip Planner

Search our weather history database for the weather conditions in past years. The results will help you decide how hot, cold, wet, or windy it might be!

Date:

Astronomy

Dec. 01, 2013 Rise Set
Actual Time 7:08 AM CST 5:06 PM CST
Civil Twilight 6:40 AM CST 5:34 PM CST
Nautical Twilight 6:09 AM CST 6:05 PM CST
Astronomical Twilight 5:38 AM CST 6:36 PM CST
Moon 5:30 AM CST (12/1) 4:15 PM CST (12/1)
Length of Visible Light 10h 53m
Length of Day
9h 58m
Waning Crescent, 2% of the Moon is Illuminated
Dec 1
Waning Crescent
Dec 2
New
Dec 9
First Quarter
Dec 17
Full
Dec 25
Last Quarter

Hourly Weather History & Observations

Time (CST) Temp. Windchill Dew Point Humidity Pressure Visibility Wind Dir Wind Speed Gust Speed Precip Events Conditions
12:15 AM 44.6 °F - 44.6 °F 100% 30.17 in 7.0 mi Calm Calm - N/A   Unknown
12:35 AM 42.8 °F - 42.8 °F 100% 30.16 in 7.0 mi Calm Calm - N/A   Unknown
12:55 AM 44.6 °F - 44.6 °F 100% 30.16 in 7.0 mi Calm Calm - N/A   Unknown
1:15 AM 44.6 °F 43.1 °F 44.6 °F 100% 30.15 in 7.0 mi SW 3.5 mph - N/A   Unknown
1:35 AM 48.2 °F - 48.2 °F 100% 30.15 in 10.0 mi SW 4.6 mph - N/A   Unknown
1:55 AM 51.8 °F - 50.0 °F 94% 30.15 in 10.0 mi SW 5.8 mph - N/A   Unknown
2:15 AM 51.8 °F - 48.2 °F 88% 30.15 in 10.0 mi SW 5.8 mph - N/A   Unknown
2:35 AM 51.8 °F - 50.0 °F 94% 30.14 in 10.0 mi SW 6.9 mph - N/A   Unknown
2:55 AM 51.8 °F - 50.0 °F 94% 30.14 in 10.0 mi SW 5.8 mph - N/A   Unknown
3:15 AM 51.8 °F - 48.2 °F 88% 30.14 in 10.0 mi WSW 4.6 mph - N/A   Unknown
3:35 AM 51.8 °F - 48.2 °F 88% 30.13 in 10.0 mi SW 5.8 mph - N/A   Unknown
3:55 AM 51.8 °F - 50.0 °F 94% 30.12 in 10.0 mi WSW 3.5 mph - N/A   Unknown
4:15 AM 51.8 °F - 50.0 °F 94% 30.11 in 10.0 mi SW 4.6 mph - N/A   Unknown
4:35 AM 51.8 °F - 50.0 °F 94% 30.10 in 10.0 mi SW 3.5 mph - N/A   Unknown
4:55 AM 51.8 °F - 50.0 °F 94% 30.11 in 10.0 mi WSW 3.5 mph - N/A   Unknown
5:15 AM 51.8 °F - 50.0 °F 94% 30.11 in 10.0 mi Calm Calm - N/A   Unknown
5:35 AM 51.8 °F - 50.0 °F 94% 30.11 in 10.0 mi Calm Calm - N/A   Unknown
5:55 AM 51.8 °F - 50.0 °F 94% 30.11 in 10.0 mi SSW 3.5 mph - N/A   Unknown
6:15 AM 50.0 °F - 48.2 °F 94% 30.11 in 10.0 mi Calm Calm - N/A   Unknown
6:35 AM 44.6 °F - 44.6 °F 100% 30.11 in 10.0 mi Calm Calm - N/A   Unknown
6:55 AM 44.6 °F - 44.6 °F 100% 30.11 in 10.0 mi Calm Calm - N/A   Unknown
7:15 AM 44.6 °F - 44.6 °F 100% 30.11 in 5.0 mi Calm Calm - N/A   Mist
7:35 AM 42.8 °F - 42.8 °F 100% 30.11 in 4.0 mi Calm Calm - N/A   Mist
7:55 AM 42.8 °F - 42.8 °F 100% 30.11 in 5.0 mi Calm Calm - N/A   Mist
8:15 AM 44.6 °F - 44.6 °F 100% 30.11 in 7.0 mi Calm Calm - N/A   Unknown
8:35 AM 46.4 °F - 46.4 °F 100% 30.11 in 10.0 mi Calm Calm - N/A   Unknown
8:55 AM 50.0 °F - 50.0 °F 100% 30.11 in 10.0 mi Calm Calm - N/A   Unknown
9:15 AM 51.8 °F - 50.0 °F 94% 30.12 in 10.0 mi Calm Calm - N/A   Unknown
9:35 AM 51.8 °F - 50.0 °F 94% 30.12 in 10.0 mi Calm Calm - N/A   Unknown
9:55 AM 55.4 °F - 53.6 °F 94% 30.12 in 10.0 mi Calm Calm - N/A   Unknown
10:15 AM 55.4 °F - 51.8 °F 88% 30.11 in 10.0 mi Calm Calm - N/A   Unknown
10:35 AM 59.0 °F - 53.6 °F 82% 30.11 in 10.0 mi Calm Calm - N/A   Unknown
10:55 AM 59.0 °F - 53.6 °F 82% 30.11 in 10.0 mi Calm Calm - N/A   Unknown
11:15 AM 60.8 °F - 55.4 °F 82% 30.09 in 10.0 mi SW 3.5 mph - N/A   Unknown
11:35 AM 60.8 °F - 53.6 °F 77% 30.07 in 10.0 mi SSW 4.6 mph - N/A   Unknown
11:55 AM 60.8 °F - 53.6 °F 77% 30.06 in 10.0 mi SSW 3.5 mph - N/A   Unknown
12:15 PM 60.8 °F - 53.6 °F 77% 30.05 in 10.0 mi SW 8.1 mph - N/A   Unknown
12:35 PM 60.8 °F - 53.6 °F 77% 30.04 in 10.0 mi SSW 5.8 mph - N/A   Unknown
12:55 PM 62.6 °F - 53.6 °F 72% 30.02 in 10.0 mi SSW 5.8 mph - N/A   Unknown
1:15 PM 62.6 °F - 55.4 °F 77% 30.02 in 10.0 mi SW 5.8 mph - N/A   Unknown
1:35 PM 60.8 °F - 53.6 °F 77% 30.01 in 10.0 mi SSW 6.9 mph - N/A   Unknown
1:55 PM 60.8 °F - 53.6 °F 77% 30.00 in 10.0 mi SW 5.8 mph - N/A   Unknown
2:15 PM 60.8 °F - 53.6 °F 77% 30.00 in 10.0 mi Calm Calm - N/A   Unknown
2:35 PM 60.8 °F - 53.6 °F 77% 29.98 in 10.0 mi West 3.5 mph - N/A   Unknown
2:55 PM 60.8 °F - 53.6 °F 77% 29.98 in 10.0 mi WSW 3.5 mph - N/A   Unknown
3:15 PM 60.8 °F - 55.4 °F 82% 29.98 in 10.0 mi WSW 3.5 mph - N/A   Unknown
3:35 PM 60.8 °F - 55.4 °F 82% 29.98 in 10.0 mi WSW 4.6 mph - N/A   Unknown
3:55 PM 60.8 °F - 55.4 °F 82% 29.98 in 10.0 mi Calm Calm - N/A   Unknown
4:15 PM 60.8 °F - 55.4 °F 82% 29.98 in 10.0 mi Calm Calm - N/A   Unknown
4:35 PM 59.0 °F - 53.6 °F 82% 29.98 in 10.0 mi Calm Calm - N/A   Unknown
4:55 PM 59.0 °F - 53.6 °F 82% 29.97 in 10.0 mi Calm Calm - N/A   Unknown
5:15 PM 59.0 °F - 55.4 °F 88% 29.96 in 10.0 mi Calm Calm - N/A   Unknown
5:35 PM 55.4 °F - 53.6 °F 94% 29.95 in 10.0 mi Calm Calm - N/A   Unknown
5:55 PM 53.6 °F - 51.8 °F 94% 29.96 in 7.0 mi Calm Calm - N/A   Unknown
6:15 PM 53.6 °F - 53.6 °F 100% 29.95 in 7.0 mi Calm Calm - N/A   Unknown
6:35 PM 53.6 °F - 53.6 °F 100% 29.95 in 7.0 mi Calm Calm - N/A   Unknown
6:55 PM 51.8 °F - 51.8 °F 100% 29.95 in 7.0 mi Calm Calm - N/A   Unknown
7:15 PM 53.6 °F - 53.6 °F 100% 29.95 in 7.0 mi Calm Calm - N/A   Unknown
7:35 PM 51.8 °F - 51.8 °F 100% 29.95 in 5.0 mi Calm Calm - N/A   Mist
7:55 PM 53.6 °F - 51.8 °F 94% 29.94 in 5.0 mi Calm Calm - N/A   Mist
8:15 PM 53.6 °F - 53.6 °F 100% 29.95 in 7.0 mi Calm Calm - N/A   Unknown
8:35 PM 53.6 °F - 53.6 °F 100% 29.94 in 7.0 mi Calm Calm - N/A   Unknown
8:55 PM 53.6 °F - 53.6 °F 100% 29.94 in 7.0 mi Calm Calm - N/A   Unknown
9:15 PM 53.6 °F - 53.6 °F 100% 29.94 in 7.0 mi Calm Calm - N/A   Unknown
9:35 PM 53.6 °F - 53.6 °F 100% 29.93 in 7.0 mi Calm Calm - N/A   Unknown
9:55 PM 53.6 °F - 51.8 °F 94% 29.94 in 7.0 mi Calm Calm - N/A   Unknown
10:15 PM 53.6 °F - 51.8 °F 94% 29.93 in 7.0 mi Calm Calm - N/A   Unknown
10:35 PM 53.6 °F - 51.8 °F 94% 29.92 in 10.0 mi Calm Calm - N/A   Unknown
10:55 PM 51.8 °F - 51.8 °F 100% 29.91 in 7.0 mi Calm Calm - N/A   Unknown
11:15 PM 51.8 °F - 50.0 °F 94% 29.90 in 7.0 mi Calm Calm - N/A   Unknown
11:35 PM 51.8 °F - 51.8 °F 100% 29.90 in 7.0 mi Calm Calm - N/A   Unknown
11:55 PM 51.8 °F - 51.8 °F 100% 29.90 in 5.0 mi Calm Calm - N/A   Mist